Hourly Data Report for September 26, 2017

All times are specified in Local Standard Time (LST). Add 1 hour to adjust for Daylight Saving Time where and when it is observed.

IQALUIT CLIMATE
NUNAVUT

63°44'50.000" N
68°32'40.000" W
33.50 m
2402592
71321
XFB

Download Data

Hourly Data (September 2017)
Hourly Data Report for September 26, 2017
Temp Definition
°C
Dew Point Temp Definition
°C
Rel Hum Definition
%
Wind Dir Definition
10's deg

Wind Spd Definition
km/h
Visibility Definition
km
Stn Press Definition
kPa
Hmdx Definition


Wind Chill Definition


Weather Definition


TIME
00:00 -2.4 -4.0 89 33 7   100.96   -5 LegendNANA
01:00 -2.2 -3.7 90 34 12   100.96   -6 LegendNANA
02:00 -0.8 -3.0 85 31 16   100.96   -6 LegendNANA
03:00 -0.5 -2.8 84 30 18   100.96   -6 LegendNANA
04:00 -0.6 -3.2 82 33 19   100.96   -6 LegendNANA
05:00 -1.5 -2.8 91 33 20   100.99   -7 LegendNANA
06:00 -3.0 -4.3 91 32 13   100.98   -8 LegendNANA
07:00 -1.3 -3.7 84 33 14   101.00   -6 LegendNANA
08:00 -1.3 -3.4 85 32 23   101.02   -7 LegendNANA
09:00 -0.6 -3.9 78 33 27   100.99   -7 LegendNANA
10:00 -0.4 -2.9 83 32 23   100.97   -6 LegendNANA
11:00 0.6 -3.7 73 32 27   100.96     LegendNANA
12:00 0.0 -4.2 73 32 28   100.97   -6 LegendNANA
13:00 0.2 -4.1 73 32 29   100.99     LegendNANA
14:00 0.6 -2.9 77 31 28   100.98     LegendNANA
15:00 0.2 -3.4 77 33 29   101.01     LegendNANA
16:00 -0.5 -3.3 81 32 25   101.02   -7 LegendNANA
17:00 -0.7 -3.0 85 33 23   101.05   -7 LegendNANA
18:00 -1.1 -3.5 84 33 24   101.05   -7 LegendNANA
19:00 -1.1 -2.7 89 32 20   101.07   -7 LegendNANA
20:00 -1.2 -2.4 92 33 18   101.02   -6 LegendNANA
21:00 -1.2 -3.7 84 31 30   101.01   -8 LegendNANA
22:00 -1.2 -3.6 84 33 20   101.01   -7 LegendNANA
23:00 -1.8 -3.3 89 33 18   101.01   -7 LegendNANA

Notes on Data Quality.

Legend

  • E = Estimated
  • M = Missing
  • NA = Not Available
  • ‡ = Partner data that is not subject to review by the National Climate Archives
Date modified: